sat.trackr.live / text

‹ back to catalog

STARLINK-1420

NORAD 45695 · 2020-035AQ

PAYLOAD ACTIVE UNKNOWN

§ Identity

Operator
Country
US
Launch date
2020-06-04
Launch site
AFETR
Launch vehicle
Mass (kg)
RCS (m²)

Purposes: comms

External: N2YO · Heavens-Above · Gunter

§ Orbital elements

Epoch: 2026-09-19T23:53:47.982336Z

Period
90.72 min
Inclination
53.0359°
Eccentricity
0.0005213
Mean motion
15.87240593 rev/d
Perigee alt
306.5 km
Apogee alt
313.5 km
Semi-major
6,688.2 km
B*
4.6654e-4
RAAN
141.2547°
Arg perigee
121.4043°
Mean anomaly
238.7491°
Rev number
34,988

§ Raw data

STARLINK-14201 45695U 20035AQ  26262.99569424  .00125864  00000+0  46654-3 0  99982 45695  53.0359 141.2547 0005213 121.4043 238.7491 15.87240593349886

JSON: /api/v1/satellites/45695 · /tle

For live sub-satellite position, see the globe view (requires WebGL).

§ Visibility from observer

Set your observer location to see the next 7 days of passes ≥ 10°. The values pass through the URL so the page stays shareable.

No JS? Fill the form by hand. The geolocation button needs JavaScript.